Year,Month,Day,Hour,Minute,Value (Times are PST for temperature in C)
2009,06,29,00,00,10.90
2009,06,29,00,01,10.90
2009,06,29,00,02,10.90
2009,06,29,00,03,10.90
2009,06,29,00,04,10.90
2009,06,29,00,05,10.80
2009,06,29,00,06,10.80
2009,06,29,00,07,10.80
2009,06,29,00,08,10.80
2009,06,29,00,09,10.80
2009,06,29,00,10,10.80
2009,06,29,00,11,10.70
2009,06,29,00,12,10.70
2009,06,29,00,13,10.70
2009,06,29,00,14,10.70
2009,06,29,00,15,10.60
2009,06,29,00,16,10.60
2009,06,29,00,17,10.60
2009,06,29,00,18,10.60
2009,06,29,00,19,10.60
2009,06,29,00,20,10.60
2009,06,29,00,21,10.40
2009,06,29,00,22,10.40
2009,06,29,00,23,10.40
2009,06,29,00,24,10.40
2009,06,29,00,25,10.40
2009,06,29,00,26,10.40
2009,06,29,00,27,10.40
2009,06,29,00,28,10.30
2009,06,29,00,29,10.30
2009,06,29,00,30,10.30
2009,06,29,00,31,10.30
2009,06,29,00,32,10.30
2009,06,29,00,33,10.30
2009,06,29,00,34,10.30
2009,06,29,00,35,10.30
2009,06,29,00,36,10.30
2009,06,29,00,37,10.30
2009,06,29,00,38,10.30
2009,06,29,00,39,10.20
2009,06,29,00,40,10.20
2009,06,29,00,41,10.20
2009,06,29,00,42,10.20
2009,06,29,00,43,10.20
2009,06,29,00,44,10.20
2009,06,29,00,45,10.20
2009,06,29,00,46,10.20
2009,06,29,00,47,10.20
2009,06,29,00,48,10.20
2009,06,29,00,49,10.20
2009,06,29,00,50,10.20
2009,06,29,00,51,10.20
2009,06,29,00,52,10.20
2009,06,29,00,53,10.20
2009,06,29,00,54,10.20
2009,06,29,00,55,10.20
2009,06,29,00,56,10.20
2009,06,29,00,57,10.20
2009,06,29,00,58,10.10
2009,06,29,00,59,10.10
2009,06,29,01,00,10.10
2009,06,29,01,01,10.10
2009,06,29,01,02,10.10
2009,06,29,01,03,10.10
2009,06,29,01,04,10.10
2009,06,29,01,05,10.10
2009,06,29,01,06,10.10
2009,06,29,01,07,10.10
2009,06,29,01,08,10.10
2009,06,29,01,09,10.10
2009,06,29,01,10,10.10
2009,06,29,01,11,10.10
2009,06,29,01,12,10.10
2009,06,29,01,13,10.10
2009,06,29,01,14,10.10
2009,06,29,01,15,10.10
2009,06,29,01,16,10.10
2009,06,29,01,17,10.10
2009,06,29,01,18,10.10
2009,06,29,01,19,10.10
2009,06,29,01,20,10.10
2009,06,29,01,21,10.10
2009,06,29,01,22,10.10
2009,06,29,01,23,10.10
2009,06,29,01,24,10.10
2009,06,29,01,25,10.10
2009,06,29,01,26,10.10
2009,06,29,01,27,10.10
2009,06,29,01,28,10.10
2009,06,29,01,29,10.10
2009,06,29,01,30,10.10
2009,06,29,01,31,10.10
2009,06,29,01,32,10.10
2009,06,29,01,33,10.10
2009,06,29,01,34,10.10
2009,06,29,01,35,10.10
2009,06,29,01,36,10.20
2009,06,29,01,37,10.20
2009,06,29,01,38,10.20
2009,06,29,01,39,10.20
2009,06,29,01,40,10.20
2009,06,29,01,41,10.20
2009,06,29,01,42,10.20
2009,06,29,01,43,10.20
2009,06,29,01,44,10.20
2009,06,29,01,45,10.10
2009,06,29,01,46,10.10
2009,06,29,01,47,10.10
2009,06,29,01,48,10.10
2009,06,29,01,49,10.10
2009,06,29,01,50,10.10
2009,06,29,01,51,10.10
2009,06,29,01,52,10.10
2009,06,29,01,53,10.10
2009,06,29,01,54,10.10
2009,06,29,01,55,10.10
2009,06,29,01,56,10.10
2009,06,29,01,57,10.10
2009,06,29,01,58,10.10
2009,06,29,01,59,10.10
2009,06,29,02,00,10.10
2009,06,29,02,01,10.00
2009,06,29,02,02,9.90
2009,06,29,02,03,9.90
2009,06,29,02,04,9.90
2009,06,29,02,05,9.90
2009,06,29,02,06,9.90
2009,06,29,02,07,9.90
2009,06,29,02,08,9.90
2009,06,29,02,09,9.90
2009,06,29,02,10,9.80
2009,06,29,02,11,9.80
2009,06,29,02,12,9.80
2009,06,29,02,13,9.70
2009,06,29,02,14,9.70
2009,06,29,02,15,9.70
2009,06,29,02,16,9.70
2009,06,29,02,17,9.70
2009,06,29,02,18,9.70
2009,06,29,02,19,9.70
2009,06,29,02,20,9.70
2009,06,29,02,21,9.70
2009,06,29,02,22,9.60
2009,06,29,02,23,9.60
2009,06,29,02,24,9.60
2009,06,29,02,25,9.60
2009,06,29,02,26,9.60
2009,06,29,02,27,9.50
2009,06,29,02,28,9.50
2009,06,29,02,29,9.50
2009,06,29,02,30,9.50
2009,06,29,02,31,9.50
2009,06,29,02,32,9.50
2009,06,29,02,33,9.40
2009,06,29,02,34,9.40
2009,06,29,02,35,9.40
2009,06,29,02,36,9.40
2009,06,29,02,37,9.40
2009,06,29,02,38,9.40
2009,06,29,02,39,9.40
2009,06,29,02,40,9.30
2009,06,29,02,41,9.30
2009,06,29,02,42,9.30
2009,06,29,02,43,9.30
2009,06,29,02,44,9.30
2009,06,29,02,45,9.30
2009,06,29,02,46,9.30
2009,06,29,02,47,9.30
2009,06,29,02,48,9.30
2009,06,29,02,49,9.30
2009,06,29,02,50,9.20
2009,06,29,02,51,9.20
2009,06,29,02,52,9.20
2009,06,29,02,53,9.20
2009,06,29,02,54,9.20
2009,06,29,02,55,9.20
2009,06,29,02,56,9.20
2009,06,29,02,57,9.20
2009,06,29,02,58,9.20
2009,06,29,02,59,9.20
2009,06,29,03,00,9.20
2009,06,29,03,01,9.20
2009,06,29,03,02,9.20
2009,06,29,03,03,9.10
2009,06,29,03,04,9.10
2009,06,29,03,05,9.10
2009,06,29,03,06,9.10
2009,06,29,03,07,9.10
2009,06,29,03,08,9.10
2009,06,29,03,09,9.00
2009,06,29,03,10,9.00
2009,06,29,03,11,9.00
2009,06,29,03,12,9.00
2009,06,29,03,13,9.00
2009,06,29,03,14,9.00
2009,06,29,03,15,8.90
2009,06,29,03,16,8.90
2009,06,29,03,17,8.90
2009,06,29,03,18,8.90
2009,06,29,03,19,8.90
2009,06,29,03,20,8.90
2009,06,29,03,21,8.90
2009,06,29,03,22,8.90
2009,06,29,03,23,8.80
2009,06,29,03,24,8.80
2009,06,29,03,25,8.80
2009,06,29,03,26,8.80
2009,06,29,03,27,8.80
2009,06,29,03,28,8.80
2009,06,29,03,29,8.80
2009,06,29,03,30,8.80
2009,06,29,03,31,8.70
2009,06,29,03,32,8.70
2009,06,29,03,33,8.70
2009,06,29,03,34,8.70
2009,06,29,03,35,8.70
2009,06,29,03,36,8.70
2009,06,29,03,37,8.70
2009,06,29,03,38,8.70
2009,06,29,03,39,8.70
2009,06,29,03,40,8.70
2009,06,29,03,41,8.70
2009,06,29,03,42,8.70
2009,06,29,03,43,8.70
2009,06,29,03,44,8.70
2009,06,29,03,45,8.70
2009,06,29,03,46,8.70
2009,06,29,03,47,8.70
2009,06,29,03,48,8.70
2009,06,29,03,49,8.70
2009,06,29,03,50,8.70
2009,06,29,03,51,8.70
2009,06,29,03,52,8.70
2009,06,29,03,53,8.70
2009,06,29,03,54,8.70
2009,06,29,03,55,8.70
2009,06,29,03,56,8.70
2009,06,29,03,57,8.60
2009,06,29,03,58,8.60
2009,06,29,03,59,8.60
2009,06,29,04,00,8.60
2009,06,29,04,01,8.60
2009,06,29,04,02,8.60
2009,06,29,04,03,8.60
2009,06,29,04,04,8.60
2009,06,29,04,05,8.60
2009,06,29,04,06,8.60
2009,06,29,04,07,8.60
2009,06,29,04,08,8.60
2009,06,29,04,09,8.60
2009,06,29,04,10,8.60
2009,06,29,04,11,8.50
2009,06,29,04,12,8.50
2009,06,29,04,13,8.50
2009,06,29,04,14,8.50
2009,06,29,04,15,8.50
2009,06,29,04,16,8.50
2009,06,29,04,17,8.50
2009,06,29,04,18,8.50
2009,06,29,04,19,8.50
2009,06,29,04,20,8.50
2009,06,29,04,21,8.50
2009,06,29,04,22,8.40
2009,06,29,04,23,8.40
2009,06,29,04,24,8.40
2009,06,29,04,25,8.40
2009,06,29,04,26,8.40
2009,06,29,04,27,8.40
2009,06,29,04,28,8.40
2009,06,29,04,29,8.40
2009,06,29,04,30,8.30
2009,06,29,04,31,8.30
2009,06,29,04,32,8.30
2009,06,29,04,33,8.30
2009,06,29,04,34,8.30
2009,06,29,04,35,8.30
2009,06,29,04,36,8.30
2009,06,29,04,37,8.30
2009,06,29,04,38,8.30
2009,06,29,04,39,8.30
2009,06,29,04,40,8.30
2009,06,29,04,41,8.30
2009,06,29,04,42,8.30
2009,06,29,04,43,8.30
2009,06,29,04,44,8.30
2009,06,29,04,45,8.20
2009,06,29,04,46,8.20
2009,06,29,04,47,8.20
2009,06,29,04,48,8.20
2009,06,29,04,49,8.20
2009,06,29,04,50,8.20
2009,06,29,04,51,8.20
2009,06,29,04,52,8.20
2009,06,29,04,53,8.20
2009,06,29,04,54,8.20
2009,06,29,04,55,8.20
2009,06,29,04,56,8.20
2009,06,29,04,57,8.20
2009,06,29,04,58,8.20
2009,06,29,04,59,8.20
2009,06,29,05,00,8.20
2009,06,29,05,01,8.20
2009,06,29,05,02,8.10
2009,06,29,05,03,8.10
2009,06,29,05,04,8.10
2009,06,29,05,05,8.10
2009,06,29,05,06,8.10
2009,06,29,05,07,8.10
2009,06,29,05,08,8.10
2009,06,29,05,09,8.10
2009,06,29,05,10,8.10
2009,06,29,05,11,8.10
2009,06,29,05,12,8.10
2009,06,29,05,13,8.10
2009,06,29,05,14,8.10
2009,06,29,05,15,8.10
2009,06,29,05,16,8.10
2009,06,29,05,17,8.10
2009,06,29,05,18,8.10
2009,06,29,05,19,8.10
2009,06,29,05,20,8.10
2009,06,29,05,21,8.10
2009,06,29,05,22,8.10
2009,06,29,05,23,8.10
2009,06,29,05,24,8.10
2009,06,29,05,25,8.10
2009,06,29,05,26,8.10
2009,06,29,05,27,8.10
2009,06,29,05,28,8.20
2009,06,29,05,29,8.20
2009,06,29,05,30,8.20
2009,06,29,05,31,8.20
2009,06,29,05,32,8.20
2009,06,29,05,33,8.20
2009,06,29,05,34,8.20
2009,06,29,05,35,8.20
2009,06,29,05,36,8.20
2009,06,29,05,37,8.20
2009,06,29,05,38,8.20
2009,06,29,05,39,8.20
2009,06,29,05,40,8.20
2009,06,29,05,41,8.20
2009,06,29,05,42,8.20
2009,06,29,05,43,8.20
2009,06,29,05,44,8.20
2009,06,29,05,45,8.20
2009,06,29,05,46,8.20
2009,06,29,05,47,8.20
2009,06,29,05,48,8.20
2009,06,29,05,49,8.20
2009,06,29,05,50,8.30
2009,06,29,05,51,8.30
2009,06,29,05,52,8.30
2009,06,29,05,53,8.30
2009,06,29,05,54,8.30
2009,06,29,05,55,8.30
2009,06,29,05,56,8.30
2009,06,29,05,57,8.40
2009,06,29,05,58,8.40
2009,06,29,05,59,8.50
2009,06,29,06,00,8.50
2009,06,29,06,01,8.60
2009,06,29,06,02,8.70
2009,06,29,06,03,8.70
2009,06,29,06,04,8.70
2009,06,29,06,05,8.70
2009,06,29,06,06,8.70
2009,06,29,06,07,8.70
2009,06,29,06,08,8.70
2009,06,29,06,09,8.70
2009,06,29,06,10,8.80
2009,06,29,06,11,8.80
2009,06,29,06,12,8.80
2009,06,29,06,13,8.80
2009,06,29,06,14,8.90
2009,06,29,06,15,8.90
2009,06,29,06,16,9.00
2009,06,29,06,17,9.00
2009,06,29,06,18,9.10
2009,06,29,06,19,9.10
2009,06,29,06,20,9.20
2009,06,29,06,21,9.20
2009,06,29,06,22,9.20
2009,06,29,06,23,9.20
2009,06,29,06,24,9.30
2009,06,29,06,25,9.40
2009,06,29,06,26,9.50
2009,06,29,06,27,9.60
2009,06,29,06,28,9.70
2009,06,29,06,29,9.80
2009,06,29,06,30,9.90
2009,06,29,06,31,10.10
2009,06,29,06,32,10.20
2009,06,29,06,33,10.30
2009,06,29,06,34,10.30
2009,06,29,06,35,10.40
2009,06,29,06,36,10.50
2009,06,29,06,37,10.60
2009,06,29,06,38,10.60
2009,06,29,06,39,10.70
2009,06,29,06,40,10.70
2009,06,29,06,41,10.80
2009,06,29,06,42,10.90
2009,06,29,06,43,11.00
2009,06,29,06,44,11.10
2009,06,29,06,45,11.20
2009,06,29,06,46,11.30
2009,06,29,06,47,11.40
2009,06,29,06,48,11.40
2009,06,29,06,49,11.50
2009,06,29,06,50,11.60
2009,06,29,06,51,11.60
2009,06,29,06,52,11.60
2009,06,29,06,53,11.70
2009,06,29,06,54,11.70
2009,06,29,06,55,11.80
2009,06,29,06,56,11.80
2009,06,29,06,57,11.80
2009,06,29,06,58,11.90
2009,06,29,06,59,12.00
2009,06,29,07,00,12.20
2009,06,29,07,01,12.30
2009,06,29,07,02,12.30
2009,06,29,07,03,12.40
2009,06,29,07,04,12.40
2009,06,29,07,05,12.50
2009,06,29,07,06,12.60
2009,06,29,07,07,12.60
2009,06,29,07,08,12.70
2009,06,29,07,09,12.70
2009,06,29,07,10,12.80
2009,06,29,07,11,12.80
2009,06,29,07,12,12.90
2009,06,29,07,13,13.00
2009,06,29,07,14,13.10
2009,06,29,07,15,13.10
2009,06,29,07,16,13.20
2009,06,29,07,17,13.30
2009,06,29,07,18,13.30
2009,06,29,07,19,13.40
2009,06,29,07,20,13.50
2009,06,29,07,21,13.60
2009,06,29,07,22,13.60
2009,06,29,07,23,13.70
2009,06,29,07,24,13.70
2009,06,29,07,25,13.80
2009,06,29,07,26,13.90
2009,06,29,07,27,14.00
2009,06,29,07,28,14.00
2009,06,29,07,29,14.20
2009,06,29,07,30,14.20
2009,06,29,07,31,14.20
2009,06,29,07,32,14.20
2009,06,29,07,33,14.20
2009,06,29,07,34,14.20
2009,06,29,07,35,14.20
2009,06,29,07,36,14.20
2009,06,29,07,37,14.20
2009,06,29,07,38,14.20
2009,06,29,07,39,14.20
2009,06,29,07,40,14.20
2009,06,29,07,41,14.30
2009,06,29,07,42,14.30
2009,06,29,07,43,14.40
2009,06,29,07,44,14.40
2009,06,29,07,45,14.50
2009,06,29,07,46,14.50
2009,06,29,07,47,14.50
2009,06,29,07,48,14.50
2009,06,29,07,49,14.50
2009,06,29,07,50,14.60
2009,06,29,07,51,14.60
2009,06,29,07,52,14.60
2009,06,29,07,53,14.60
2009,06,29,07,54,14.70
2009,06,29,07,55,14.70
2009,06,29,07,56,14.70
2009,06,29,07,57,14.60
2009,06,29,07,58,14.70
2009,06,29,07,59,14.70
2009,06,29,08,00,14.80
2009,06,29,08,01,14.80
2009,06,29,08,02,14.80
2009,06,29,08,03,14.80
2009,06,29,08,04,14.80
2009,06,29,08,05,14.80
2009,06,29,08,06,14.80
2009,06,29,08,07,14.90
2009,06,29,08,08,15.00
2009,06,29,08,09,15.10
2009,06,29,08,10,15.10
2009,06,29,08,11,15.00
2009,06,29,08,12,15.00
2009,06,29,08,13,15.00
2009,06,29,08,14,15.00
2009,06,29,08,15,15.10
2009,06,29,08,16,15.10
2009,06,29,08,17,15.20
2009,06,29,08,18,15.20
2009,06,29,08,19,15.10
2009,06,29,08,20,15.10
2009,06,29,08,21,15.00
2009,06,29,08,22,14.90
2009,06,29,08,23,14.90
2009,06,29,08,24,15.00
2009,06,29,08,25,15.00
2009,06,29,08,26,15.00
2009,06,29,08,27,15.00
2009,06,29,08,28,15.00
2009,06,29,08,29,15.00
2009,06,29,08,30,14.90
2009,06,29,08,31,14.90
2009,06,29,08,32,15.00
2009,06,29,08,33,15.00
2009,06,29,08,34,15.00
2009,06,29,08,35,15.00
2009,06,29,08,36,15.00
2009,06,29,08,37,15.00
2009,06,29,08,38,15.00
2009,06,29,08,39,15.10
2009,06,29,08,40,15.10
2009,06,29,08,41,15.30
2009,06,29,08,42,15.40
2009,06,29,08,43,15.50
2009,06,29,08,44,15.50
2009,06,29,08,45,15.50
2009,06,29,08,46,15.60
2009,06,29,08,47,15.60
2009,06,29,08,48,15.50
2009,06,29,08,49,15.50
2009,06,29,08,50,15.40
2009,06,29,08,51,15.40
2009,06,29,08,52,15.30
2009,06,29,08,53,15.30
2009,06,29,08,54,15.10
2009,06,29,08,55,15.00
2009,06,29,08,56,14.90
2009,06,29,08,57,14.90
2009,06,29,08,58,14.90
2009,06,29,08,59,15.00
2009,06,29,09,00,15.10
2009,06,29,09,01,15.20
2009,06,29,09,02,15.30
2009,06,29,09,03,15.30
2009,06,29,09,04,15.20
2009,06,29,09,05,15.20
2009,06,29,09,06,15.20
2009,06,29,09,07,15.30
2009,06,29,09,08,15.30
2009,06,29,09,09,15.40
2009,06,29,09,10,15.40
2009,06,29,09,11,15.50
2009,06,29,09,12,15.60
2009,06,29,09,13,15.80
2009,06,29,09,14,15.80
2009,06,29,09,15,15.90
2009,06,29,09,16,15.90
2009,06,29,09,17,15.80
2009,06,29,09,18,15.70
2009,06,29,09,19,15.70
2009,06,29,09,20,15.70
2009,06,29,09,21,15.80
2009,06,29,09,22,15.80
2009,06,29,09,23,15.80
2009,06,29,09,24,15.90
2009,06,29,09,25,15.80
2009,06,29,09,26,15.80
2009,06,29,09,27,15.90
2009,06,29,09,28,16.00
2009,06,29,09,29,16.10
2009,06,29,09,30,16.20
2009,06,29,09,31,16.20
2009,06,29,09,32,16.10
2009,06,29,09,33,15.90
2009,06,29,09,34,15.80
2009,06,29,09,35,15.80
2009,06,29,09,36,15.70
2009,06,29,09,37,15.70
2009,06,29,09,38,15.70
2009,06,29,09,39,15.70
2009,06,29,09,40,15.70
2009,06,29,09,41,15.80
2009,06,29,09,42,15.80
2009,06,29,09,43,15.80
2009,06,29,09,44,15.80
2009,06,29,09,45,15.90
2009,06,29,09,46,16.00
2009,06,29,09,47,16.10
2009,06,29,09,48,16.20
2009,06,29,09,49,16.20
2009,06,29,09,50,16.30
2009,06,29,09,51,16.10
2009,06,29,09,52,16.10
2009,06,29,09,53,16.10
2009,06,29,09,54,16.10
2009,06,29,09,55,15.90
2009,06,29,09,56,15.90
2009,06,29,09,57,15.80
2009,06,29,09,58,15.70
2009,06,29,09,59,15.60
2009,06,29,10,00,15.50
2009,06,29,10,01,15.60
2009,06,29,10,02,15.60
2009,06,29,10,03,15.60
2009,06,29,10,04,15.70
2009,06,29,10,05,15.80
2009,06,29,10,06,15.80
2009,06,29,10,07,15.70
2009,06,29,10,08,15.60
2009,06,29,10,09,15.70
2009,06,29,10,10,15.70
2009,06,29,10,11,15.80
2009,06,29,10,12,15.80
2009,06,29,10,13,15.70
2009,06,29,10,14,15.60
2009,06,29,10,15,15.60
2009,06,29,10,16,15.60
2009,06,29,10,17,15.60
2009,06,29,10,18,15.70
2009,06,29,10,19,15.70
2009,06,29,10,20,15.60
2009,06,29,10,21,15.50
2009,06,29,10,22,15.60
2009,06,29,10,23,15.60
2009,06,29,10,24,15.60
2009,06,29,10,25,15.70
2009,06,29,10,26,15.70
2009,06,29,10,27,15.60
2009,06,29,10,28,15.60
2009,06,29,10,29,15.50
2009,06,29,10,30,15.60
2009,06,29,10,31,15.50
2009,06,29,10,32,15.60
2009,06,29,10,33,15.80
2009,06,29,10,34,15.80
2009,06,29,10,35,15.80
2009,06,29,10,36,15.80
2009,06,29,10,37,15.80
2009,06,29,10,38,15.80
2009,06,29,10,39,15.80
2009,06,29,10,40,15.80
2009,06,29,10,41,15.80
2009,06,29,10,42,15.80
2009,06,29,10,43,15.90
2009,06,29,10,44,16.00
2009,06,29,10,45,16.10
2009,06,29,10,46,16.30
2009,06,29,10,47,16.30
2009,06,29,10,48,16.40
2009,06,29,10,49,16.40
2009,06,29,10,50,16.40
2009,06,29,10,51,16.40
2009,06,29,10,52,16.60
2009,06,29,10,53,16.70
2009,06,29,10,54,16.80
2009,06,29,10,55,16.80
2009,06,29,10,56,16.80
2009,06,29,10,57,16.70
2009,06,29,10,58,16.70
2009,06,29,10,59,16.70
2009,06,29,11,00,16.60
2009,06,29,11,01,16.40
2009,06,29,11,02,16.30
2009,06,29,11,03,16.20
2009,06,29,11,04,16.20
2009,06,29,11,05,16.30
2009,06,29,11,06,16.40
2009,06,29,11,07,16.30
2009,06,29,11,08,16.20
2009,06,29,11,09,16.20
2009,06,29,11,10,16.40
2009,06,29,11,11,16.60
2009,06,29,11,12,16.70
2009,06,29,11,13,16.80
2009,06,29,11,14,16.90
2009,06,29,11,15,16.90
2009,06,29,11,16,17.00
2009,06,29,11,17,16.90
2009,06,29,11,18,16.70
2009,06,29,11,19,16.70
2009,06,29,11,20,16.70
2009,06,29,11,21,16.70
2009,06,29,11,22,16.70
2009,06,29,11,23,16.70
2009,06,29,11,24,16.70
2009,06,29,11,25,16.60
2009,06,29,11,26,16.70
2009,06,29,11,27,16.70
2009,06,29,11,28,16.70
2009,06,29,11,29,16.70
2009,06,29,11,30,16.80
2009,06,29,11,31,16.80
2009,06,29,11,32,16.90
2009,06,29,11,33,16.90
2009,06,29,11,34,16.90
2009,06,29,11,35,16.90
2009,06,29,11,36,17.00
2009,06,29,11,37,17.00
2009,06,29,11,38,17.20
2009,06,29,11,39,17.30
2009,06,29,11,40,17.10
2009,06,29,11,41,17.10
2009,06,29,11,42,17.20
2009,06,29,11,43,17.20
2009,06,29,11,44,17.20
2009,06,29,11,45,17.20
2009,06,29,11,46,17.30
2009,06,29,11,47,17.20
2009,06,29,11,48,17.20
2009,06,29,11,49,17.10
2009,06,29,11,50,17.10
2009,06,29,11,51,17.20
2009,06,29,11,52,17.30
2009,06,29,11,53,17.30
2009,06,29,11,54,17.40
2009,06,29,11,55,17.40
2009,06,29,11,56,17.30
2009,06,29,11,57,17.30
2009,06,29,11,58,17.30
2009,06,29,11,59,17.30
2009,06,29,12,00,17.20
2009,06,29,12,01,17.10
2009,06,29,12,02,17.00
2009,06,29,12,03,16.90
2009,06,29,12,04,16.90
2009,06,29,12,05,16.90
2009,06,29,12,06,17.00
2009,06,29,12,07,16.90
2009,06,29,12,08,16.90
2009,06,29,12,09,16.90
2009,06,29,12,10,16.90
2009,06,29,12,11,16.90
2009,06,29,12,12,16.80
2009,06,29,12,13,16.80
2009,06,29,12,14,16.90
2009,06,29,12,15,17.00
2009,06,29,12,16,17.00
2009,06,29,12,17,17.00
2009,06,29,12,18,16.90
2009,06,29,12,19,16.90
2009,06,29,12,20,16.90
2009,06,29,12,21,17.00
2009,06,29,12,22,17.00
2009,06,29,12,23,17.10
2009,06,29,12,24,17.10
2009,06,29,12,25,17.20
2009,06,29,12,26,17.30
2009,06,29,12,27,17.30
2009,06,29,12,28,17.30
2009,06,29,12,29,17.40
2009,06,29,12,30,17.60
2009,06,29,12,31,17.70
2009,06,29,12,32,17.70
2009,06,29,12,33,17.60
2009,06,29,12,34,17.60
2009,06,29,12,35,17.60
2009,06,29,12,36,17.50
2009,06,29,12,37,17.40
2009,06,29,12,38,17.20
2009,06,29,12,39,17.20
2009,06,29,12,40,17.30
2009,06,29,12,41,17.20
2009,06,29,12,42,17.00
2009,06,29,12,43,17.10
2009,06,29,12,44,17.10
2009,06,29,12,45,17.00
2009,06,29,12,46,17.00
2009,06,29,12,47,17.00
2009,06,29,12,48,17.20
2009,06,29,12,49,17.40
2009,06,29,12,50,17.40
2009,06,29,12,51,17.50
2009,06,29,12,52,17.60
2009,06,29,12,53,17.70
2009,06,29,12,54,17.60
2009,06,29,12,55,17.50
2009,06,29,12,56,17.40
2009,06,29,12,57,17.30
2009,06,29,12,58,17.10
2009,06,29,12,59,17.20
2009,06,29,13,00,17.40
2009,06,29,13,01,17.50
2009,06,29,13,02,17.40
2009,06,29,13,03,17.40
2009,06,29,13,04,17.50
2009,06,29,13,05,17.50
2009,06,29,13,06,17.50
2009,06,29,13,07,17.30
2009,06,29,13,08,17.30
2009,06,29,13,09,17.30
2009,06,29,13,10,17.30
2009,06,29,13,11,17.30
2009,06,29,13,12,17.30
2009,06,29,13,13,17.30
2009,06,29,13,14,17.30
2009,06,29,13,15,17.20
2009,06,29,13,16,17.10
2009,06,29,13,17,17.00
2009,06,29,13,18,17.00
2009,06,29,13,19,17.00
2009,06,29,13,20,17.10
2009,06,29,13,21,17.20
2009,06,29,13,22,17.20
2009,06,29,13,23,17.20
2009,06,29,13,24,17.20
2009,06,29,13,25,17.30
2009,06,29,13,26,17.30
2009,06,29,13,27,17.30
2009,06,29,13,28,17.30
2009,06,29,13,29,17.30
2009,06,29,13,30,17.30
2009,06,29,13,31,17.30
2009,06,29,13,32,17.30
2009,06,29,13,33,17.30
2009,06,29,13,34,17.30
2009,06,29,13,35,17.30
2009,06,29,13,36,17.20
2009,06,29,13,37,17.00
2009,06,29,13,38,16.90
2009,06,29,13,39,16.90
2009,06,29,13,40,17.00
2009,06,29,13,41,17.10
2009,06,29,13,42,17.30
2009,06,29,13,43,17.30
2009,06,29,13,44,17.30
2009,06,29,13,45,17.30
2009,06,29,13,46,17.30
2009,06,29,13,47,17.30
2009,06,29,13,48,17.20
2009,06,29,13,49,17.10
2009,06,29,13,50,17.10
2009,06,29,13,51,17.00
2009,06,29,13,52,16.90
2009,06,29,13,53,16.80
2009,06,29,13,54,16.80
2009,06,29,13,55,16.70
2009,06,29,13,56,16.70
2009,06,29,13,57,16.70
2009,06,29,13,58,16.90
2009,06,29,13,59,16.90
2009,06,29,14,00,17.00
2009,06,29,14,01,17.00
2009,06,29,14,02,17.10
2009,06,29,14,03,17.10
2009,06,29,14,04,17.20
2009,06,29,14,05,17.10
2009,06,29,14,06,17.10
2009,06,29,14,07,17.20
2009,06,29,14,08,17.30
2009,06,29,14,09,17.40
2009,06,29,14,10,17.60
2009,06,29,14,11,17.70
2009,06,29,14,12,17.70
2009,06,29,14,13,17.70
2009,06,29,14,14,17.70
2009,06,29,14,15,17.60
2009,06,29,14,16,17.50
2009,06,29,14,17,17.40
2009,06,29,14,18,17.30
2009,06,29,14,19,17.30
2009,06,29,14,20,17.20
2009,06,29,14,21,17.10
2009,06,29,14,22,17.10
2009,06,29,14,23,17.20
2009,06,29,14,24,17.00
2009,06,29,14,25,17.00
2009,06,29,14,26,17.10
2009,06,29,14,27,17.10
2009,06,29,14,28,17.10
2009,06,29,14,29,17.20
2009,06,29,14,30,17.30
2009,06,29,14,31,17.30
2009,06,29,14,32,17.20
2009,06,29,14,33,17.20
2009,06,29,14,34,17.10
2009,06,29,14,35,16.90
2009,06,29,14,36,16.90
2009,06,29,14,37,17.00
2009,06,29,14,38,16.90
2009,06,29,14,39,16.90
2009,06,29,14,40,17.00
2009,06,29,14,41,16.90
2009,06,29,14,42,17.00
2009,06,29,14,43,17.10
2009,06,29,14,44,17.20
2009,06,29,14,45,17.30
2009,06,29,14,46,17.20
2009,06,29,14,47,17.30
2009,06,29,14,48,17.20
2009,06,29,14,49,17.20
2009,06,29,14,50,17.20
2009,06,29,14,51,17.20
2009,06,29,14,52,17.30
2009,06,29,14,53,17.30
2009,06,29,14,54,17.40
2009,06,29,14,55,17.50
2009,06,29,14,56,17.40
2009,06,29,14,57,17.30
2009,06,29,14,58,17.20
2009,06,29,14,59,17.20
2009,06,29,15,00,17.20
2009,06,29,15,01,17.30
2009,06,29,15,02,17.30
2009,06,29,15,03,17.30
2009,06,29,15,04,17.50
2009,06,29,15,05,17.70
2009,06,29,15,06,17.70
2009,06,29,15,07,17.80
2009,06,29,15,08,17.80
2009,06,29,15,09,17.70
2009,06,29,15,10,17.70
2009,06,29,15,11,17.80
2009,06,29,15,12,17.80
2009,06,29,15,13,17.70
2009,06,29,15,14,17.50
2009,06,29,15,15,17.50
2009,06,29,15,16,17.50
2009,06,29,15,17,17.40
2009,06,29,15,18,17.30
2009,06,29,15,19,17.30
2009,06,29,15,20,17.20
2009,06,29,15,21,17.20
2009,06,29,15,22,17.30
2009,06,29,15,23,17.20
2009,06,29,15,24,17.20
2009,06,29,15,25,17.30
2009,06,29,15,26,17.20
2009,06,29,15,27,17.20
2009,06,29,15,28,17.10
2009,06,29,15,29,17.20
2009,06,29,15,30,17.20
2009,06,29,15,31,17.30
2009,06,29,15,32,17.50
2009,06,29,15,33,17.60
2009,06,29,15,34,17.60
2009,06,29,15,35,17.50
2009,06,29,15,36,17.60
2009,06,29,15,37,17.50
2009,06,29,15,38,17.40
2009,06,29,15,39,17.30
2009,06,29,15,40,17.40
2009,06,29,15,41,17.40
2009,06,29,15,42,17.50
2009,06,29,15,43,17.60
2009,06,29,15,44,17.60
2009,06,29,15,45,17.60
2009,06,29,15,46,17.50
2009,06,29,15,47,17.50
2009,06,29,15,48,17.40
2009,06,29,15,49,17.30
2009,06,29,15,50,17.30
2009,06,29,15,51,17.20
2009,06,29,15,52,17.20
2009,06,29,15,53,17.10
2009,06,29,15,54,17.00
2009,06,29,15,55,16.90
2009,06,29,15,56,16.90
2009,06,29,15,57,16.90
2009,06,29,15,58,16.70
2009,06,29,15,59,16.70
2009,06,29,16,00,16.70
2009,06,29,16,01,16.70
2009,06,29,16,02,16.70
2009,06,29,16,03,16.70
2009,06,29,16,04,16.70
2009,06,29,16,05,16.50
2009,06,29,16,06,16.40
2009,06,29,16,07,16.40
2009,06,29,16,08,16.40
2009,06,29,16,09,16.40
2009,06,29,16,10,16.40
2009,06,29,16,11,16.60
2009,06,29,16,12,16.70
2009,06,29,16,13,16.80
2009,06,29,16,14,16.80
2009,06,29,16,15,16.80
2009,06,29,16,16,16.70
2009,06,29,16,17,16.60
2009,06,29,16,18,16.40
2009,06,29,16,19,16.40
2009,06,29,16,20,16.40
2009,06,29,16,21,16.40
2009,06,29,16,22,16.30
2009,06,29,16,23,16.30
2009,06,29,16,24,16.20
2009,06,29,16,25,16.20
2009,06,29,16,26,16.40
2009,06,29,16,27,16.50
2009,06,29,16,28,16.60
2009,06,29,16,29,16.60
2009,06,29,16,30,16.70
2009,06,29,16,31,16.70
2009,06,29,16,32,16.80
2009,06,29,16,33,16.70
2009,06,29,16,34,16.70
2009,06,29,16,35,16.70
2009,06,29,16,36,16.60
2009,06,29,16,37,16.50
2009,06,29,16,38,16.40
2009,06,29,16,39,16.30
2009,06,29,16,40,16.20
2009,06,29,16,41,16.20
2009,06,29,16,42,16.10
2009,06,29,16,43,16.10
2009,06,29,16,44,16.10
2009,06,29,16,45,16.10
2009,06,29,16,46,16.10
2009,06,29,16,47,16.10
2009,06,29,16,48,16.10
2009,06,29,16,49,16.20
2009,06,29,16,50,16.20
2009,06,29,16,51,16.10
2009,06,29,16,52,16.10
2009,06,29,16,53,16.10
2009,06,29,16,54,16.10
2009,06,29,16,55,16.10
2009,06,29,16,56,16.10
2009,06,29,16,57,16.10
2009,06,29,16,58,16.20
2009,06,29,16,59,16.40
2009,06,29,17,00,16.40
2009,06,29,17,01,16.40
2009,06,29,17,02,16.40
2009,06,29,17,03,16.40
2009,06,29,17,04,16.30
2009,06,29,17,05,16.30
2009,06,29,17,06,16.20
2009,06,29,17,07,16.20
2009,06,29,17,08,16.20
2009,06,29,17,09,16.20
2009,06,29,17,10,16.30
2009,06,29,17,11,16.40
2009,06,29,17,12,16.40
2009,06,29,17,13,16.40
2009,06,29,17,14,16.40
2009,06,29,17,15,16.40
2009,06,29,17,16,16.40
2009,06,29,17,17,16.40
2009,06,29,17,18,16.40
2009,06,29,17,19,16.40
2009,06,29,17,20,16.30
2009,06,29,17,21,16.30
2009,06,29,17,22,16.40
2009,06,29,17,23,16.40
2009,06,29,17,24,16.40
2009,06,29,17,25,16.40
2009,06,29,17,26,16.60
2009,06,29,17,27,16.60
2009,06,29,17,28,16.70
2009,06,29,17,29,16.80
2009,06,29,17,30,16.80
2009,06,29,17,31,16.80